Terminal Aerodrome Forecast
Issued by NWS

Home | Current Version | Previous Version | Text Only | Print | Product List | Glossary On
Versions: 1 2 3 4 5 6 7 8 9 10 11 12 13 14 15 16 17 18 19 20 21 22 23 24 25 26 27 28 29 30 31 32 33 34 35 36
000
FTAK31 PAFA 012339
TAFAUN
TAF
PAUN 012339Z 0200/0224 30008KT P6SM -SHRA SCT005 BKN012
     FM020400 25008KT 6SM BR FU VCSH SCT010 BKN020
     FM021000 24010KT 4SM -SHRA BR FU SCT007 OVC015=

USA.gov is the U.S. government's official web portal to all federal, state and local government web resources and services.